Simultaneous Nadir Overpasses (SNOs) Predictions

Prediction of SNOs near equator between NOAA-19 and NPP Satellite Orbit:

Table of predicted SNOs near equator for the next 14.0 days since TLE Epoch: 3/2/2013
Index Date (NOAA-19) Time (NOAA-19) NOAA-19 Lat,Lon Date (NPP) Time (NPP) NPP Lat,Lon Distance(km) Time Diff (sec)
1 03/07/2013 21:34:48 -29.99, 55.19 03/07/2013 21:26:30 -29.77, 54.23 95.85 498
2 03/07/2013 22:25:51 29.98,-137.57 03/07/2013 22:17:19 29.79,-138.48 90.18 512
3 03/07/2013 23:16:52 -29.94, 29.69 03/07/2013 23:08:00 -29.77, 28.86 82.30 532
4 03/08/2013 00:07:55 29.94,-163.08 03/07/2013 23:58:49 29.79,-163.85 76.66 546
5 03/08/2013 00:58:57 -29.96, 4.16 03/08/2013 00:49:31 -29.83, 3.47 68.71 566
6 03/08/2013 01:50:00 29.96, 171.40 03/08/2013 01:40:20 29.85, 170.76 63.13 580
7 03/08/2013 02:41:02
